| time (UTC) | temp F | wind direction | speed MPH | gust MPH | rain 1hr in | rain 24hr in | rain mn in | humidity % | barometer mb |
| 20260901163329 | 66 | 262 | 3.0 | 10.0 | 0.00 | 0.01 | 0.01 | 53 | 1034.2 |
| 20260901161821 | 66 | 264 | 1.0 | 8.0 | 0.00 | 0.01 | 0.01 | 57 | 1033.8 |
| 20260901160315 | 65 | 266 | 1.0 | 6.0 | 0.00 | 0.01 | 0.01 | 55 | 1033.5 |
| 20260901154851 | 63 | 231 | 3.0 | 5.0 | 0.00 | 0.01 | 0.01 | 59 | 1033.6 |
| 20260901153324 | 62 | 291 | 0.0 | 3.0 | 0.00 | 0.01 | 0.01 | 62 | 1033.3 |
| 20260901151816 | 61 | 292 | 1.0 | 4.0 | 0.00 | 0.01 | 0.01 | 64 | 1033.4 |
| 20260901150331 | 59 | 19 | 0.0 | 4.0 | 0.00 | 0.01 | 0.01 | 67 | 1033.2 |
| 20260901144846 | 58 | 23 | 0.0 | 1.0 | 0.00 | 0.01 | 0.01 | 75 | 1033.3 |
| 20260901143320 | 56 | 24 | 0.0 | 3.0 | 0.00 | 0.01 | 0.01 | 83 | 1033.3 |
| 20260901141818 | 53 | 23 | 3.0 | 9.0 | 0.00 | 0.02 | 0.01 | 89 | 1033.4 |
| 20260901140334 | 51 | 41 | 2.0 | 5.0 | 0.00 | 0.02 | 0.01 | 91 | 1033.3 |
| 20260901134827 | 51 | 41 | 0.0 | 3.0 | 0.00 | 0.02 | 0.01 | 90 | 1033.3 |
| 20260901133322 | 51 | 41 | 0.0 | 2.0 | 0.00 | 0.02 | 0.01 | 90 | 1033.2 |
| 20260901131814 | 51 | 41 | 0.0 | 2.0 | 0.00 | 0.02 | 0.01 | 89 | 1033.1 |
| 20260901130329 | 51 | 41 | 0.0 | 2.0 | 0.00 | 0.02 | 0.01 | 89 | 1033.1 |
| 20260901124823 | 52 | 41 | 0.0 | 1.0 | 0.00 | 0.02 | 0.01 | 89 | 1033.0 |
| 20260901123317 | 52 | 41 | 0.0 | 2.0 | 0.00 | 0.02 | 0.01 | 89 | 1032.7 |
| 20260901121831 | 53 | 41 | 1.0 | 3.0 | 0.00 | 0.10 | 0.01 | 89 | 1032.6 |
| 20260901120318 | 53 | 41 | 0.0 | 3.0 | 0.00 | 0.10 | 0.01 | 89 | 1032.6 |
| 20260901114819 | 53 | 41 | 0.0 | 3.0 | 0.00 | 0.10 | 0.01 | 90 | 1032.7 |
| 20260901113334 | 53 | 41 | 0.0 | 3.0 | 0.00 | 0.10 | 0.01 | 90 | 1032.8 |
| 20260901111820 | 53 | 41 | 0.0 | 3.0 | 0.00 | 0.24 | 0.01 | 90 | 1032.7 |
| 20260901110315 | 53 | 41 | 0.0 | 1.0 | 0.00 | 0.24 | 0.01 | 90 | 1032.8 |
| 20260901104847 | 53 | 41 | 0.0 | 3.0 | 0.00 | 0.24 | 0.01 | 90 | 1032.6 |
| 20260901103321 | 53 | 41 | 1.0 | 4.0 | 0.00 | 0.24 | 0.01 | 90 | 1032.8 |
| 20260901101834 | 53 | 41 | 2.0 | 5.0 | 0.00 | 0.24 | 0.01 | 89 | 1033.0 |
| 20260901100348 | 54 | 44 | 0.0 | 0.0 | 0.00 | 0.24 | 0.01 | 89 | 1033.0 |
| 20260901094820 | 54 | 43 | 0.0 | 0.0 | 0.01 | 0.24 | 0.01 | 88 | 1033.2 |
| 20260901093314 | 54 | 43 | 0.0 | 0.0 | 0.01 | 0.24 | 0.01 | 87 | 1033.1 |
| 20260901091847 | 55 | 44 | 0.0 | 0.0 | 0.01 | 0.24 | 0.01 | 85 | 1033.2 |
| 20260901090321 | 55 | 43 | 0.0 | 0.0 | 0.01 | 0.24 | 0.01 | 83 | 1033.3 |
| 20260901084815 | 55 | 43 | 0.0 | 0.0 | 0.00 | 0.23 | 0.00 | 80 | 1033.3 |
| 20260901083330 | 55 | 44 | 0.0 | 0.0 | 0.00 | 0.23 | 0.00 | 79 | 1033.0 |
| 20260901081823 | 55 | 44 | 0.0 | 4.0 | 0.00 | 0.23 | 0.00 | 78 | 1032.7 |
| 20260901080337 | 55 | 25 | 3.0 | 10.0 | 0.00 | 0.23 | 0.00 | 77 | 1032.5 |
| 20260901074831 | 55 | 25 | 3.0 | 10.0 | 0.00 | 0.23 | 0.00 | 78 | 1032.4 |
| 20260901073325 | 54 | 19 | 3.0 | 6.0 | 0.00 | 0.23 | 0.00 | 82 | 1032.5 |
| 20260901071811 | 54 | 18 | 0.0 | 5.0 | 0.00 | 0.23 | 0.00 | 82 | 1032.5 |
| 20260901070333 | 53 | 25 | 1.0 | 3.0 | 0.00 | 0.23 | 0.00 | 82 | 1032.6 |
| 20260901064847 | 53 | 25 | 0.0 | 3.0 | 0.00 | 0.23 | 0.00 | 83 | 1032.6 |
| 20260901063320 | 54 | 25 | 0.0 | 1.0 | 0.00 | 0.23 | 0.00 | 82 | 1032.7 |
| 20260901061834 | 54 | 25 | 0.0 | 0.0 | 0.00 | 0.23 | 0.23 | 81 | 1032.9 |
| 20260901060349 | 54 | 25 | 0.0 | 0.0 | 0.00 | 0.23 | 0.23 | 80 | 1033.3 |
| 20260901054825 | 54 | 25 | 0.0 | 1.0 | 0.00 | 0.23 | 0.23 | 79 | 1033.4 |
| 20260901053313 | 55 | 25 | 0.0 | 1.0 | 0.00 | 0.23 | 0.23 | 77 | 1033.3 |
| 20260901051832 | 56 | 25 | 0.0 | 0.0 | 0.00 | 0.23 | 0.23 | 76 | 1033.4 |
| 20260901050326 | 56 | 25 | 0.0 | 3.0 | 0.00 | 0.23 | 0.23 | 73 | 1033.5 |
| 20260901044841 | 57 | 25 | 0.0 | 3.0 | 0.00 | 0.23 | 0.23 | 72 | 1033.6 |
| 20260901043315 | 57 | 48 | 1.0 | 4.0 | 0.00 | 0.23 | 0.23 | 71 | 1033.3 |
| 20260901041828 | 56 | 48 | 2.0 | 10.0 | 0.00 | 0.23 | 0.23 | 70 | 1033.1 |
| 20260901040322 | 56 | 344 | 2.0 | 5.0 | 0.00 | 0.23 | 0.23 | 69 | 1033.4 |
| 20260901034815 | 56 | 316 | 3.0 | 6.0 | 0.00 | 0.23 | 0.23 | 72 | 1033.3 |
| 20260901033350 | 56 | 301 | 0.0 | 6.0 | 0.00 | 0.23 | 0.23 | 73 | 1033.2 |
| 20260901031821 | 56 | 278 | 1.0 | 4.0 | 0.00 | 0.23 | 0.23 | 71 | 1033.2 |
| 20260901030316 | 57 | 277 | 0.0 | 1.0 | 0.00 | 0.23 | 0.23 | 70 | 1033.4 |
| 20260901024830 | 58 | 276 | 0.0 | 1.0 | 0.00 | 0.23 | 0.23 | 71 | 1032.7 |
| 20260901023344 | 58 | 276 | 0.0 | 3.0 | 0.00 | 0.23 | 0.23 | 68 | 1032.8 |
| 20260901021816 | 59 | 268 | 1.0 | 3.0 | 0.00 | 0.23 | 0.23 | 67 | 1032.7 |
| 20260901020332 | 59 | 265 | 0.0 | 3.0 | 0.00 | 0.23 | 0.23 | 67 | 1032.6 |
| 20260901014825 | 60 | 264 | 0.0 | 4.0 | 0.00 | 0.23 | 0.23 | 65 | 1033.2 |
| 20260901013320 | 60 | 259 | 0.0 | 6.0 | 0.00 | 0.23 | 0.23 | 63 | 1033.1 |
| 20260901011811 | 61 | 237 | 2.0 | 5.0 | 0.00 | 0.23 | 0.23 | 62 | 1032.7 |
| 20260901010326 | 61 | 235 | 0.0 | 2.0 | 0.00 | 0.23 | 0.23 | 61 | 1033.0 |
| 20260901004819 | 62 | 235 | 2.0 | 4.0 | 0.00 | 0.23 | 0.23 | 59 | 1033.3 |
| 20260901003334 | 63 | 234 | 4.0 | 9.0 | 0.00 | 0.23 | 0.23 | 56 | 1033.6 |
| 20260901001825 | 64 | 239 | 3.0 | 12.0 | 0.00 | 0.23 | 0.23 | 56 | 1033.4 |
| 20260901000339 | 64 | 232 | 5.0 | 14.0 | 0.00 | 0.23 | 0.23 | 57 | 1033.3 |
| 20260831234812 | 64 | 237 | 5.0 | 13.0 | 0.00 | 0.23 | 0.23 | 58 | 1033.4 |
| 20260831233327 | 64 | 189 | 2.0 | 12.0 | 0.00 | 0.23 | 0.23 | 59 | 1033.1 |
| 20260831231820 | 63 | 235 | 6.0 | 11.0 | 0.00 | 0.23 | 0.23 | 62 | 1033.4 |
| 20260831230334 | 63 | 185 | 5.0 | 14.0 | 0.00 | 0.23 | 0.23 | 62 | 1033.7 |
| 20260831224829 | 63 | 312 | 2.0 | 14.0 | 0.00 | 0.23 | 0.23 | 65 | 1033.7 |
| 20260831223317 | 64 | 247 | 5.0 | 12.0 | 0.00 | 0.23 | 0.23 | 64 | 1033.9 |
| 20260831221837 | 66 | 228 | 5.0 | 13.0 | 0.00 | 0.23 | 0.23 | 60 | 1033.7 |
| 20260831220323 | 66 | 237 | 3.0 | 12.0 | 0.00 | 0.23 | 0.23 | 57 | 1033.6 |
| 20260831214822 | 67 | 244 | 3.0 | 10.0 | 0.00 | 0.23 | 0.23 | 56 | 1033.6 |
| 20260831213316 | 69 | 299 | 2.0 | 11.0 | 0.00 | 0.23 | 0.23 | 55 | 1033.8 |
| 20260831211858 | 68 | 268 | 2.0 | 12.0 | 0.00 | 0.23 | 0.23 | 58 | 1033.9 |
| 20260831210323 | 68 | 216 | 3.0 | 9.0 | 0.00 | 0.23 | 0.23 | 58 | 1034.1 |
| 20260831204818 | 68 | 239 | 2.0 | 13.0 | 0.00 | 0.23 | 0.23 | 56 | 1034.2 |
| 20260831203401 | 68 | 276 | 7.0 | 11.0 | 0.00 | 0.23 | 0.23 | 56 | 1034.1 |
| 20260831201831 | 67 | 220 | 2.0 | 8.0 | 0.00 | 0.23 | 0.23 | 60 | 1034.2 |
| 20260831200325 | 67 | 268 | 3.0 | 9.0 | 0.00 | 0.23 | 0.23 | 58 | 1034.6 |
| 20260831194840 | 67 | 258 | 2.0 | 11.0 | 0.00 | 0.23 | 0.23 | 58 | 1034.7 |
| 20260831193313 | 66 | 259 | 4.0 | 10.0 | 0.00 | 0.23 | 0.23 | 56 | 1034.7 |
| 20260831191827 | 66 | 323 | 4.0 | 10.0 | 0.00 | 0.23 | 0.23 | 56 | 1035.0 |
| 20260831190321 | 66 | 252 | 4.0 | 12.0 | 0.00 | 0.23 | 0.23 | 64 | 1035.1 |
| 20260831184815 | 64 | 220 | 2.0 | 8.0 | 0.00 | 0.23 | 0.23 | 71 | 1035.2 |
| 20260831183330 | 64 | 245 | 2.0 | 13.0 | 0.00 | 0.23 | 0.23 | 68 | 1035.4 |
| 20260831181816 | 65 | 267 | 4.0 | 11.0 | 0.00 | 0.23 | 0.23 | 66 | 1035.4 |
| 20260831180337 | 64 | 254 | 4.0 | 10.0 | 0.00 | 0.23 | 0.23 | 64 | 1035.3 |
| 20260831174822 | 65 | 253 | 5.0 | 14.0 | 0.00 | 0.23 | 0.23 | 66 | 1035.5 |
| 20260831173318 | 63 | 172 | 2.0 | 9.0 | 0.00 | 0.23 | 0.23 | 73 | 1035.3 |
| 20260831171858 | 64 | 232 | 4.0 | 10.0 | 0.00 | 0.23 | 0.23 | 69 | 1035.3 |
| 20260831170313 | 64 | 230 | 2.0 | 11.0 | 0.00 | 0.23 | 0.23 | 67 | 1035.1 |
| 20260831164833 | 66 | 248 | 4.0 | 12.0 | 0.00 | 0.23 | 0.23 | 64 | 1035.0 |